Date String (YYYY-MM-DD hh:mm:ss) UTC,Instrument flags,absolute air pressure of the measurement (hPa),sample flow rate (lpm),inlet stack bypass flow (lpm),air temperature of the measurement (°C),ambient temperature measured by the external sensor (°C),aerosol sample conditioner tube jacket temperature (°C),OPC LED temperature (°C),internal box temperature (°C),relative humidity of the measurement (%),span deviation,mass concentration of particles derived from Lorenz-Mie calculation of OPC scattering (μg/m³),mass concentration of particles derived from Lorenz-Mie calculation of OPC scattering (μg/m³),mass concentration of particles derived from Lorenz-Mie calculation of OPC scattering (μg/m³)
DateTimeUTC,F1_M11,P_M11,Q1_M11,Q2_M11,T1_M11,T2_M11,T3_M11,T4_M11,T5_M11,U1_M11,ZSPAN_M11,X2_M11,X0_M11,X1_M11
2024-06-02 14:00:00,SystemResetWarning,0825.4,5.00,000.00,030.4,029.6,000.0,038.7,032.0,019.8,0000.0,0003.79,0008.00,0003.11
2024-06-02 14:01:00,SystemResetWarning,0825.4,5.01,000.00,030.4,029.6,000.0,038.7,032.1,019.8,0000.0,0003.79,0008.61,0003.11
2024-06-02 14:02:00,SystemResetWarning,0825.4,5.01,000.00,030.4,029.6,000.0,038.7,032.1,019.7,0000.0,0003.76,0008.82,0003.12
2024-06-02 14:03:00,SystemResetWarning,0825.4,4.99,000.00,030.4,029.6,000.0,038.7,032.1,020.7,0000.0,0003.79,0009.23,0003.14
2024-06-02 14:04:00,SystemResetWarning,0825.4,4.99,000.00,030.4,029.6,000.0,038.7,032.1,020.6,0000.0,0003.85,0010.80,0003.15
2024-06-02 14:05:00,SystemResetWarning,0825.4,4.99,000.00,030.4,029.6,000.0,038.7,032.1,020.6,0000.0,0003.82,0011.00,0003.17
2024-06-02 14:06:00,SystemResetWarning,0825.4,5.00,000.00,030.4,029.6,000.0,038.8,032.1,021.0,0000.0,0003.83,0011.10,0003.19
2024-06-02 14:07:00,SystemResetWarning,0825.4,5.01,000.00,030.4,029.6,000.0,038.8,032.1,021.4,0000.0,0003.86,0011.13,0003.21
2024-06-02 14:08:00,SystemResetWarning,0825.4,5.01,000.00,030.4,029.6,000.0,038.8,032.1,022.0,0000.0,0003.96,0012.08,0003.24
2024-06-02 14:09:00,SystemResetWarning,0825.5,5.00,000.00,030.4,029.6,000.0,038.8,032.1,020.9,0000.0,0003.99,0012.67,0003.26
2024-06-02 14:10:00,SystemResetWarning,0825.5,5.00,000.00,030.4,029.6,000.0,038.8,032.1,019.2,0000.0,0004.01,0012.78,0003.29
2024-06-02 14:11:00,SystemResetWarning,0825.5,4.99,000.00,030.4,029.6,000.0,038.8,032.1,019.2,0000.0,0004.05,0012.91,0003.33
2024-06-02 14:12:00,SystemResetWarning,0825.5,4.99,000.00,030.4,029.6,000.0,038.8,032.1,019.2,0000.0,0004.12,0013.48,0003.36
2024-06-02 14:13:00,SystemResetWarning,0825.5,4.99,000.00,030.4,029.6,000.0,038.8,032.1,019.5,0000.0,0004.17,0013.09,0003.39
2024-06-02 14:14:00,SystemResetWarning,0825.5,5.00,000.00,030.4,029.6,000.0,038.8,032.1,019.9,0000.0,0004.21,0013.66,0003.41
2024-06-02 14:15:00,SystemResetWarning,0825.5,5.00,000.00,030.4,029.6,000.0,038.8,032.1,019.9,0000.0,0004.23,0013.11,0003.43
2024-06-02 14:16:00,SystemResetWarning,0825.5,5.00,000.00,030.4,029.6,000.0,038.8,032.1,020.3,0000.0,0004.29,0012.71,0003.46
2024-06-02 14:17:00,SystemResetWarning,0825.5,5.01,000.00,030.4,029.6,000.0,038.8,032.1,020.3,0000.0,0004.33,0012.55,0003.48
2024-06-02 14:18:00,SystemResetWarning,0825.4,5.01,000.00,030.4,029.6,000.0,038.8,032.1,020.1,0000.0,0004.38,0012.58,0003.50
2024-06-02 14:19:00,SystemResetWarning,0825.4,5.00,000.00,030.4,029.6,000.0,038.8,032.1,019.8,0000.0,0004.33,0011.84,0003.53
2024-06-02 14:20:00,SystemResetWarning,0825.4,5.00,000.00,030.4,029.6,000.0,038.8,032.1,019.8,0000.0,0004.35,0011.34,0003.55
2024-06-02 14:21:00,SystemResetWarning,0825.4,4.99,000.00,030.4,029.6,000.0,038.8,032.1,019.7,0000.0,0004.36,0011.13,0003.57
2024-06-02 14:22:00,SystemResetWarning,0825.5,4.99,000.00,030.4,029.6,000.0,038.8,032.1,020.4,0000.0,0004.37,0011.33,0003.59
2024-06-02 14:23:00,SystemResetWarning,0825.4,5.00,000.00,030.4,029.6,000.0,038.8,032.1,020.1,0000.0,0004.34,0010.77,0003.61
2024-06-02 14:24:00,SystemResetWarning,0825.4,5.01,000.00,030.4,029.6,000.0,038.8,032.1,019.7,0000.0,0004.33,0011.64,0003.61
2024-06-02 14:25:00,SystemResetWarning,0825.4,5.01,000.00,030.4,029.6,000.0,038.8,032.1,020.2,0000.0,0004.34,0011.13,0003.61
2024-06-02 14:26:00,SystemResetWarning,0825.4,4.99,000.00,030.4,029.6,000.0,038.8,032.1,019.9,0000.0,0004.35,0010.48,0003.61
2024-06-02 14:27:00,SystemResetWarning,0825.4,4.99,000.00,030.4,029.6,000.0,038.9,032.1,020.8,0000.0,0004.37,0010.32,0003.61
2024-06-02 14:28:00,SystemResetWarning,0825.4,5.00,000.00,030.4,029.6,000.0,038.9,032.1,020.9,0000.0,0004.38,0010.26,0003.62
2024-06-02 14:29:00,SystemResetWarning,0825.4,5.00,000.00,030.4,029.6,000.0,038.9,032.1,019.9,0000.0,0004.36,0010.21,0003.62
2024-06-02 14:30:00,SystemResetWarning,0825.4,5.01,000.00,030.5,029.7,000.0,038.9,032.1,020.1,0000.0,0004.33,0010.07,0003.59
2024-06-02 14:31:00,SystemResetWarning,0825.4,5.01,000.00,030.5,029.7,000.0,038.9,032.2,019.9,0000.0,0004.27,0010.26,0003.55
2024-06-02 14:32:00,SystemResetWarning,0825.4,5.00,000.00,030.5,029.7,000.0,038.9,032.2,020.1,0000.0,0004.21,0010.12,0003.51
2024-06-02 14:33:00,SystemResetWarning,0825.4,4.99,000.00,030.5,029.7,000.0,038.9,032.2,020.6,0000.0,0004.17,0009.88,0003.46
2024-06-02 14:34:00,SystemResetWarning,0825.5,4.99,000.00,030.5,029.7,000.0,038.9,032.2,021.2,0000.0,0004.12,0009.59,0003.40
2024-06-02 14:35:00,SystemResetWarning,0825.4,5.01,000.00,030.5,029.7,000.0,038.9,032.2,020.6,0000.0,0004.08,0008.38,0003.37
2024-06-02 14:36:00,SystemResetWarning,0825.4,5.01,000.00,030.5,029.7,000.0,038.9,032.2,020.7,0000.0,0003.98,0008.75,0003.31
2024-06-02 14:37:00,SystemResetWarning,0825.4,5.00,000.00,030.5,029.7,000.0,038.9,032.2,021.1,0000.0,0003.90,0009.06,0003.26
2024-06-02 14:38:00,SystemResetWarning,0825.5,5.00,000.00,030.5,029.7,000.0,038.9,032.2,020.4,0000.0,0003.80,0009.81,0003.21
2024-06-02 14:39:00,SystemResetWarning,0825.5,5.00,000.00,030.5,029.8,000.0,038.9,032.2,020.4,0000.0,0003.72,0010.01,0003.15
2024-06-02 14:40:00,SystemResetWarning,0825.6,4.99,000.00,030.5,029.8,000.0,038.9,032.2,020.5,0000.0,0003.60,0009.79,0003.09
2024-06-02 14:41:00,SystemResetWarning,0825.5,5.00,000.00,030.5,029.8,000.0,038.9,032.2,020.2,0000.0,0003.54,0009.80,0003.02
2024-06-02 14:42:00,SystemResetWarning,0825.5,5.01,000.00,030.6,029.8,000.0,038.9,032.2,020.3,0000.0,0003.50,0009.32,0002.96
2024-06-02 14:43:00,SystemResetWarning,0825.5,5.01,000.00,030.6,029.8,000.0,038.9,032.2,020.9,0000.0,0003.48,0009.30,0002.94
2024-06-02 14:44:00,SystemResetWarning,0825.5,4.99,000.00,030.6,029.8,000.0,038.9,032.2,021.0,0000.0,0003.43,0009.10,0002.91
2024-06-02 14:45:00,SystemResetWarning,0825.4,4.99,000.00,030.6,029.8,000.0,038.9,032.2,020.8,0000.0,0003.42,0009.06,0002.89
2024-06-02 14:46:00,SystemResetWarning,0825.4,5.00,000.00,030.6,029.8,000.0,038.9,032.3,020.6,0000.0,0003.41,0009.08,0002.85
2024-06-02 14:47:00,SystemResetWarning,0825.5,5.00,000.00,030.6,029.9,000.0,038.9,032.3,021.2,0000.0,0003.43,0008.37,0002.86
2024-06-02 14:48:00,SystemResetWarning,0825.4,5.01,000.00,030.6,029.9,000.0,038.9,032.3,020.8,0000.0,0003.45,0007.77,0002.87
2024-06-02 14:49:00,SystemResetWarning,0825.5,5.01,000.00,030.6,029.9,000.0,038.9,032.3,020.7,0000.0,0003.43,0006.51,0002.87
2024-06-02 14:50:00,SystemResetWarning,0825.4,5.00,000.00,030.6,029.9,000.0,039.0,032.3,020.7,0000.0,0003.44,0005.96,0002.88
2024-06-02 14:51:00,SystemResetWarning,0825.5,5.00,000.00,030.7,029.9,000.0,039.0,032.3,020.7,0000.0,0003.44,0007.13,0002.88
2024-06-02 14:52:00,SystemResetWarning,0825.5,5.00,000.00,030.7,029.9,000.0,039.0,032.3,021.3,0000.0,0003.45,0007.32,0002.90
2024-06-02 14:53:00,SystemResetWarning,0825.5,5.00,000.00,030.7,029.9,000.0,039.0,032.3,021.7,0000.0,0003.45,0007.32,0002.92
2024-06-02 14:54:00,SystemResetWarning,0825.5,4.99,000.00,030.7,030.0,000.0,039.0,032.4,020.8,0000.0,0003.44,0007.25,0002.92
2024-06-02 14:55:00,SystemResetWarning,0825.5,5.00,000.00,030.7,030.0,000.0,039.0,032.4,020.3,0000.0,0003.48,0007.38,0002.93
2024-06-02 14:56:00,SystemResetWarning,0825.5,4.99,000.00,030.7,030.0,000.0,039.0,032.4,020.6,0000.0,0003.48,0007.39,0002.93
2024-06-02 14:57:00,SystemResetWarning,0825.5,5.01,000.00,030.7,030.0,000.0,039.0,032.4,020.7,0000.0,0003.48,0007.74,0002.95
2024-06-02 14:58:00,SystemResetWarning,0825.4,5.00,000.00,030.7,030.0,000.0,039.0,032.4,020.9,0000.0,0003.50,0008.55,0002.97
2024-06-02 14:59:00,SystemResetWarning,0825.4,5.00,000.00,030.7,030.0,000.0,039.1,032.4,020.9,0000.0,0003.51,0008.58,0002.99
